sat.trackr.live / text

‹ back to catalog

CXO

NORAD 25867 · 1999-040B

PAYLOAD ACTIVE UNKNOWN

§ Identity

Operator
Country
US
Launch date
1999-07-23
Launch site
AFETR
Launch vehicle
Mass (kg)
RCS (m²)
8.30

Purposes: science

External: N2YO · Heavens-Above · Gunter

§ Orbital elements

Epoch: 2026-05-25T13:48:59.187456Z

Period
3,808.65 min
Inclination
55.8479°
Eccentricity
0.7871499
Mean motion
0.37808626 rev/d
Perigee alt
10,817.4 km
Apogee alt
138,000.3 km
Semi-major
80,787.0 km
B*
0.0000e+0
RAAN
117.2365°
Arg perigee
310.4614°
Mean anomaly
0.0224°
Rev number
1,723

§ Raw data

CXO1 25867U 99040B   26145.57568504  .00000437  00000+0  00000+0 0  99902 25867  55.8479 117.2365 7871499 310.4614   0.0224  0.37808626 17238

JSON: /api/v1/satellites/25867 · /tle

For live sub-satellite position, see the globe view (requires WebGL).

§ Visibility from observer

Set your observer location to see the next 7 days of passes ≥ 10°. The values pass through the URL so the page stays shareable.

No JS? Fill the form by hand. The geolocation button needs JavaScript.